Regional Weather Roundup
Issued by NWS Little Rock, AR

Home | Current Version | Previous Version | Text Only | Print | Product List | Glossary On
Versions: 1 2 3 4 5 6 7 8 9 10 11 12 13 14 15 16 17 18 19 20 21 22 23 24 25 26 27 28 29 30 31 32 33 34 35 36 37 38 39 40 41 42 43
000
ASUS44 KLZK 021805
RWRLZK

WEATHER ROUNDUP FOR ARKANSAS
NATIONAL WEATHER SERVICE LITTLE ROCK AR
100 PM CDT THU OCT 02 2014

NOTE: "FAIR" INDICATES FEW OR NO CLOUDS BELOW 12,000 FEET WITH NO
SIGNIFICANT WEATHER AND/OR OBSTRUCTIONS TO VISIBILITY.

ARZ001-003-010-029-021900-
NORTHWEST ARKANSAS

CITY           SKY/WX    TMP DP  RH WIND       PRES   REMARKS
FAYETTEVILLE   CLOUDY    70  70 100 S6        29.82F THUNDER
6HR MIN TEMP:  66; 6HR MAX TEMP:  81; 6HR PCP:  0.79;

FORT SMITH     PTSUNNY   85  71  63 S10G20    29.77F HX  90
6HR MIN TEMP:  74; 6HR MAX TEMP:  88;

HARRISON       MOSUNNY   82  71  69 S16       29.81F HX  86
6HR MIN TEMP:  74; 6HR MAX TEMP:  84;

BENTONVILLE    CLOUDY    79  70  73 S8G18     29.80F
6HR MIN TEMP:  66; 6HR MAX TEMP:  81; 6HR PCP:  0.84;

ROGERS         CLOUDY    80  69  69 S18G25    29.80F
6HR MIN TEMP:  65; 6HR MAX TEMP:  80; 6HR PCP:  0.03;

SILOAM SPGS    CLOUDY    77  68  73 S10       29.80F
6HR MIN TEMP:  70; 6HR MAX TEMP:  79; 6HR PCP:  0.02;

HIGHFILL       CLOUDY    77  71  82 SW13G22   29.79F
6HR MIN TEMP:  68; 6HR MAX TEMP:  78; 6HR PCP:  0.43;

SPRINGDALE     CLOUDY    75  66  73 S14G25    29.83F
$$

ARZ004-005-016-021900-
NORTH CENTRAL ARKANSAS

CITY           SKY/WX    TMP DP  RH WIND       PRES   REMARKS
BATESVILLE     CLOUDY    82  70  65 S9        29.85F HX  86
FLIPPIN        PTSUNNY   86  66  51 S9G21     29.81F HX  88
6HR MIN TEMP:  70; 6HR MAX TEMP:  86;

MTN HOME       PTSUNNY   84  70  62 S9        29.81F HX  88
6HR MIN TEMP:  71; 6HR MAX TEMP:  86;

$$

ARZ040-041-021900-
WEST CENTRAL ARKANSAS

CITY           SKY/WX    TMP DP  RH WIND       PRES   REMARKS
MENA           PTSUNNY   86  73  66 CALM      29.84F HX  93
MOUNT IDA      CLOUDY    83  71  67 VRB6      29.83F HX  87
6HR MIN TEMP:  76; 6HR MAX TEMP:  83;

$$

ARZ009-017-025-026-028-021900-
NORTHEAST ARKANSAS

CITY           SKY/WX    TMP DP  RH WIND       PRES   REMARKS
CORNING          N/A     81  75  83 S14       29.86F HX  86
JONESBORO      CLOUDY    83  71  67 SW13G18   29.87F HX  87
6HR MIN TEMP:  68; 6HR MAX TEMP:  86;

NEWPORT        PTSUNNY   86  72  62 S16       29.87F HX  92
6HR MIN TEMP:  73; 6HR MAX TEMP:  86;

WALNUT RIDGE   PTSUNNY   77  72  83 S13       29.85F
6HR MIN TEMP:  70; 6HR MAX TEMP:  79; 6HR PCP:  0.09;

BLYTHEVILLE    LGT RAIN  83  74  74 S13       29.88F HX  89
6HR MIN TEMP:  69; 6HR MAX TEMP:  86;

NW BLYTHEVILLE PTSUNNY   84  73  70 SW9       29.88F HX  91
$$

ARZ022-023-033-042-044-021900-
CENTRAL ARKANSAS

CITY           SKY/WX    TMP DP  RH WIND       PRES   REMARKS
LITTLE ROCK    PTSUNNY   87  70  56 SW7       29.85F HX  92
6HR MIN TEMP:  76; 6HR MAX TEMP:  87; 6HR PCP: TRACE;

N LITTLE ROCK  PTSUNNY   86  72  62 SW12G20   29.85F HX  92
6HR MIN TEMP:  74; 6HR MAX TEMP:  86;

JACKSONVILLE   PTSUNNY   83  71  67 VRB5      29.85F HX  88
6HR MIN TEMP:  73; 6HR MAX TEMP:  84; 6HR PCP: TRACE;

SEARCY         CLOUDY    79  73  82 SW8       29.88F
6HR MIN TEMP:  73; 6HR MAX TEMP:  79; 6HR PCP: TRACE;

HOT SPRINGS    MOSUNNY   85  70  60 W9G16     29.85F HX  89
6HR MIN TEMP:  75; 6HR MAX TEMP:  87;

RUSSELLVILLE   SUNNY     86  69  56 VRB7G20   29.81F HX  90
6HR MIN TEMP:  75; 6HR MAX TEMP:  87;

CLINTON        PTSUNNY   84  73  70 S8G17     29.84F HAZE    HX  91
$$

ARZ036-021900-
EAST ARKANSAS

CITY           SKY/WX    TMP DP  RH WIND       PRES   REMARKS
WEST MEMPHIS   PTSUNNY   87  72  60 SW10G20   29.88F HX  93
6HR MIN TEMP:  72; 6HR MAX TEMP:  88;

$$

ARZ050-053-066-070-073-021900-
SOUTHWEST ARKANSAS

CITY           SKY/WX    TMP DP  RH WIND       PRES   REMARKS
ARKADELPHIA    FAIR      88  75  65 SW9       29.84F HX  97
6HR MIN TEMP:  75; 6HR MAX TEMP:  88;

CAMDEN         MOSUNNY   90  72  55 SW13      29.85F HX  96
TEXARKANA      MOSUNNY   88  71  57 SW13      29.83F HX  94
6HR MIN TEMP:  75; 6HR MAX TEMP:  90;

EL DORADO      MOSUNNY   85  75  72 S9        29.87F HX  93
6HR MIN TEMP:  73; 6HR MAX TEMP:  86; 6HR PCP: TRACE;

DE QUEEN       PTSUNNY   86  72  62 SW10G20   29.81F HX  92
6HR MIN TEMP:  74; 6HR MAX TEMP:  87;

$$

ARZ056-057-069-021900-
SOUTHEAST ARKANSAS

CITY           SKY/WX    TMP DP  RH WIND       PRES   REMARKS
PINE BLUFF     SUNNY     88  71  57 S18G24    29.86F HX  94
6HR MIN TEMP:  75; 6HR MAX TEMP:  88;

STUTTGART      MOSUNNY  N/A N/A N/A S15G21    29.86F
MONTICELLO     LGT RAIN  86  73  65 S9        29.87F HX  93
6HR MIN TEMP:  76; 6HR MAX TEMP:  87; 6HR PCP:  0.03;


$$




USA.gov is the U.S. government's official web portal to all federal, state and local government web resources and services.